KINEIS-2E

Last updated on Sat Sep 05 2026 00:02:54 GMT+0000 (Coordinated Universal Time)

1 62931U 25028D 26247.61731676 .00000631 00000+0 96191-4 0 9995 2 62931 97.8887 297.5409 0000938 97.7616 262.3701 14.77192163 84501
UTC large
Height (km)
Speed (km/s)
/
Latitude / Longitude
Inclination (degrees)
Orbital Period (minutes)
Azimuth
Elevation
Range (km)
Doppler Factor

Next 0 passes for location: London (51.5072 / 0.1276)

No passes found over London.
KINEIS-2E